GCXOGCGM

Guest
Details From GCXO - Tenerife Norte - Los Rodeos
To GCGM - La Gomera
Flight Number -
Tags generated
Created
Modified
Stats Distance 62 nm / 115 km
Max Altitude 5,900 ft / 1,798 m
Waypoints 3
Social Downloads 2
Likes 0
Share VATSIM

Download

Looking for another format? Having issues loading an existing format? Contact us
Advertisement - Login to hide

Notes

Basic altitude profile: - Ascent Rate: 2500ft/min - Ascent Speed: 250kts - Cruise Altitude: 1000ft - Cruise Speed: 420kts - Descent Rate: 1500ft/min - Descent Speed: 250kts Options: - Use NATs: yes - Use PACOTS: yes - Use low airways: yes - Use high airways: no

Route

GCXO TFS GCGM

ID Type Via Altitude (ft/m) Position (lat/lon) Dist (leg/tot) Name
O GCXO APT - 0 / 0 28.48266 / -16.34154 - / 0 nm Tenerife Norte - Los Rodeos
TFS VOR - 5,900 / 1,798 28.00245 / -16.68793 34 / 34 nm TENERIFE SUR VOR-DME
O GCGM APT - 0 / 0 28.02963 / -17.21460 27 / 62 nm La Gomera

Altitude Profile

Advertisement - Login to hide

GCXO

Details ICAO GCXO (TFN)
Name Tenerife Norte - Los Rodeos
Region Canary Islands
Timezone Atlantic/Canary (UTC+0.0)
Stats Elevation 2,076 ft / 633 m (AMSL)
Location 28.482700° -16.341500°
Runways 1
Magnetic Variation 4.855° W

METAR

GCXO 181300Z 32006KT 240V030 9999 FEW023 16/09 Q1022 NOSIG

Decode

TAF

TAF AMD GCXO 181150Z 1811/1909 35009KT 9999 SCT015 TX18/1814Z TN11/1906Z BECMG 1818/1820 BKN010 PROB30 TEMPO 1819/1907 3000 BCFG BKN004

Decode

Departure Runways

ID Width Length Bearing (true/mag) Surface Threshold Overrun Markings Lighting
12 148 ft / 45 m 11,165 ft / 3,403 m 110.67° / 115.53° ASPHALT 0 ft / 0 m 197 ft / 60 m VISUAL CENTERLINE EDGE THRESHOLD SALS REIL-OMNI
30 148 ft / 45 m 11,165 ft / 3,403 m 290.69° / 295.54° ASPHALT 453 ft / 138 m 197 ft / 60 m VISUAL CENTERLINE EDGE THRESHOLD SALS REIL-OMNI

GCGM

Details ICAO GCGM (GMZ)
Name La Gomera
Region Canary Islands
Timezone Atlantic/Canary (UTC+0.0)
Stats Elevation 714 ft / 218 m (AMSL)
Location 28.029600° -17.214600°
Runways 1
Magnetic Variation 5.211° W

METAR

GCGM 181300Z 20007KT 160V250 CAVOK 20/12 Q1021 RMK R09/18005KT 120V230 ARP/VRB06KT

Decode

TAF

TAF GCGM 180800Z 1809/1909 22009KT CAVOK TX23/1814Z TN14/1906Z= TAF GCHI 180800Z 1809/1909 02020KT 9999 FEW035 TX21/1814Z TN18/1906Z PROB30 TEMPO 1811/1909 02020G30KT

Decode

Destination Runways

ID Width Length Bearing (true/mag) Surface Threshold Overrun Markings Lighting
09 98 ft / 30 m 4,926 ft / 1,501 m 81.17° / 86.39° ASPHALT 0 ft / 0 m 0 ft / 0 m PREC-APP EDGE THRESHOLD REIL-OMNI
27 98 ft / 30 m 4,926 ft / 1,501 m 261.18° / 266.39° ASPHALT 0 ft / 0 m 0 ft / 0 m PREC-APP EDGE THRESHOLD REIL-OMNI

Popular Alternatives